WB2COY Weather Reports


time (UTC)temp
C
wind
direction
speed
KPH
gust
KPH
rain 1hr
cm
rain 24hr
cm
rain mn
cm
humidity
%
barometer
mb
20260901043016 20 0.0 0.0 0.05 0.13 0.03 83 1017.5
20260901040015 20 0.0 1.6 0.03 0.10 0.10 82 1017.7
20260901033017 20 0.0 0.0 0.03 0.08 0.08 82 1017.9
20260901030036 20 0.0 0.0 0.03 0.08 0.08 82 1017.8
20260901023016 20 0.0 0.0 0.00 0.05 0.05 81 1018.2
20260901020035 20 0.0 1.6 0.00 0.08 0.05 80 1018.2
20260901013117 20 0.0 0.0 0.03 0.08 0.05 79 1018.1
20260901010057 20 0.0 0.0 0.03 0.08 0.05 78 1018.3
20260901003015 20 0.0 0.0 0.00 0.05 0.03 76 1018.2
20260901000015 20 0.0 0.0 0.00 0.05 0.03 76 1018.1
20260831233016 20 0.0 0.0 0.00 0.05 0.03 75 1018.0
20260831230016 20 0.0 0.0 0.00 0.05 0.03 74 1018.3
20260831223016 20 0.0 6.4 0.00 0.05 0.03 74 1018.5
20260831220015 21 0.0 4.8 0.00 0.05 0.03 71 1018.8
20260831213015 22 0.0 0.0 0.00 0.05 0.03 73 1018.5
20260831210016 22 0.0 0.0 0.00 0.05 0.03 72 1018.6
20260831203015 23 0.0 0.0 0.03 0.05 0.03 70 1018.6
20260831200015 23 0.0 1.6 0.03 0.05 0.03 70 1018.6
20260831193035 24 0.0 3.2 0.00 0.03 0.00 62 1018.9
20260831190017 24 0.0 4.8 0.00 0.03 0.00 60 1019.3
20260831183019 25 225 1.6 6.4 0.00 0.03 0.00 61 1019.6
20260831180017 24 0.0 4.8 0.00 0.03 0.00 60 1019.7
20260831173017 24 0.0 4.8 0.00 0.03 0.00 60 1020.1
20260831170017 25 0.0 4.8 0.00 0.03 0.00 58 1020.2
20260831163021 25 0.0 3.2 0.00 0.03 0.00 57 1020.4
20260831160057 24 0.0 4.8 0.00 0.03 0.00 62 1020.6
20260831153022 23 0.0 4.8 0.00 0.03 0.00 63 1020.8
20260831150022 23 0.0 3.2 0.00 0.03 0.00 64 1020.7
20260831143036 22 338 1.6 4.8 0.00 0.03 0.00 67 1020.9
20260831140037 22 68 1.6 4.8 0.00 0.03 0.00 68 1020.7
20260831133017 21 23 1.6 6.4 0.00 0.03 0.00 68 1020.7
20260831130017 21 0 1.6 3.2 0.00 0.03 0.00 69 1020.9
20260831123017 21 0.0 3.2 0.00 0.03 0.00 70 1020.7
20260831120016 18 0.0 1.6 0.00 0.03 0.00 77 1020.6
20260831113041 18 0.0 1.6 0.00 0.03 0.00 82 1020.5
20260831110016 17 0.0 0.0 0.00 0.03 0.00 82 1020.2
20260831103017 17 0.0 0.0 0.00 0.03 0.00 81 1019.9
20260831100016 17 0.0 0.0 0.00 0.03 0.00 81 1019.7
20260831093016 17 0.0 0.0 0.00 0.03 0.00 80 1019.7
20260831090036 17 0.0 0.0 0.00 0.03 0.00 79 1019.7
20260831083017 17 0.0 1.6 0.00 0.03 0.00 76 1019.4
20260831080017 17 0.0 0.0 0.00 0.03 0.00 73 1019.4
20260831073016 17 0.0 0.0 0.00 0.03 0.00 71 1019.2
20260831070056 18 0.0 1.6 0.00 0.03 0.00 69 1019.3
20260831063015 18 0.0 1.6 0.00 0.03 0.00 69 1019.2
20260831060016 19 0.0 1.6 0.00 0.03 0.00 68 1019.0
20260831053015 20 23 1.6 3.2 0.00 0.03 0.00 66 1019.1
20260831050015 20 0.0 3.2 0.00 0.03 0.00 66 1018.9